Tracking 28081 objects as of 27-Sep-2023
HD Live streaming from Space Station
objects crossing your sky now

STARLINK-4687

Track STARLINK-4687 now!
10-day predictions
STARLINK-4687 is classified as:


NORAD ID: 53784
Int'l Code: 2022-111M
Perigee: 545.9 km
Apogee: 547.9 km
Inclination: 53.2 °
Period: 95.4 minutes
Semi major axis: 6917 km
RCS: Unknown
Launch date: September 11, 2022
Source: United States (US)
Launch site: AIR FORCE EASTERN TEST RANGE (AFETR)
Your satellite tracking list
Your tracking list is empty




NASA's NSSDC Master Catalog

Two Line Element Set (TLE):
1 53784U 22111M   23269.44194128 -.00000440  00000-0 -95500-5 0  9993
2 53784  53.2164 333.0829 0001464  96.5000 263.6159 15.08838378 58548
Source of the keplerian elements: AFSPC